Home > Weather > Basel > Past weeks

Flag for Switzerland Past Weather in Basel, Basel-Stadt, Switzerland — Yesterday and Last 2 Weeks

Now
66 °F

Overcast.


Feels Like: 66 °F
Forecast: 60 / 77 °F
Wind: 2 mph from North

Location: Bale-Mulhouse

Current Time: Jul 27, 2016 at 7:53:27 AM

Latest Report: Jul 27, 2016 at 7:00 AM


Visibility: 19 mi

Pressure: 30.08 "Hg

Humidity: 82%

Dew Point: 60 °F

Location of BaselLocation

Past Weather in Basel — Graph

°F

Basel Temperature Yesterday

Maximum temperature yesterday: 85 °F (at 5:00 PM)
Minimum temperature yesterday: 62 °F (at 6:00 AM)
Average temperature yesterday: 73 °F

High & Low Weather Summary for the Past Weeks

 TemperatureHumidityPressure
High95 °F (Jul 20, 4:00 PM)98% (Jul 16, 7:00 AM)30.37 "Hg (Jul 16, 7:00 AM)
Low45 °F (Jul 16, 5:00 AM)30% (Jul 19, 6:00 PM)29.88 "Hg (Jul 20, 6:00 PM)
Average68 °F73%30.09 "Hg
* Reported Jul 12 6:00 AM — Jul 27 6:00 AM, Basel, Weather by CustomWeather, © 2016

Note: Actual official high and low records may vary slightly from our data, if they occured in-between our weather recording intervals... More about our weather records

Advertising

Basel Weather History for the Previous 24 Hours

Scroll right to see more
 ConditionsComfort  
Time TempWeatherWind HumidityBarometerVisibility
6:00 AM
Wed, Jul 27
65 °FOvercast.2 mph83%30.08 "Hg19 mi
5:00 AM64 °FPassing clouds.1 mph92%30.08 "Hg19 mi
4:00 AM64 °FMild.2 mph94%30.08 "Hg12 mi
3:00 AM63 °FMild.5 mph90%30.08 "Hg17 mi
2:00 AM66 °FMild.5 mph87%30.09 "Hg28 mi
1:00 AM68 °FMild.8 mph83%30.09 "Hg34 mi
12:00 AM70 °FOvercast.7 mph76%30.09 "Hg31 mi
11:00 PM
Tue, Jul 26
69 °FOvercast.5 mph79%30.09 "Hg31 mi
10:00 PM72 °FSprinkles. Overcast.7 mph77%30.07 "Hg31 mi
9:00 PM75 °FOvercast.7 mph63%30.05 "Hg31 mi
8:00 PM76 °FPartly sunny.5 mph59%30.04 "Hg31 mi
7:00 PM81 °FScattered clouds.7 mph51%30.03 "Hg19 mi
6:00 PM83 °FScattered clouds.9 mph49%30.03 "Hg19 mi
5:00 PM85 °FScattered clouds.9 mph41%30.02 "Hg19 mi
4:00 PM84 °FScattered clouds.10 mph45%30.03 "Hg19 mi
2:00 PM83 °FScattered clouds.3 mph44%30.06 "Hg19 mi
1:00 PM82 °FScattered clouds.5 mph48%30.07 "Hg19 mi
12:00 PM79 °FScattered clouds.5 mph57%30.09 "Hg16 mi
11:00 AM77 °FPartly sunny.3 mph63%30.10 "Hg12 mi
10:00 AM75 °FOvercast.3 mph65%30.11 "Hg12 mi
9:00 AM71 °FOvercast.1 mph79%30.12 "Hg12 mi
8:00 AM68 °FPartly sunny.1 mph82%30.11 "Hg12 mi
7:00 AM63 °FScattered clouds.2 mph97%30.12 "Hg9 mi
Weather by CustomWeather, © 2016

See weather overviewHow to use our weather pages